Location: B?dargowo
(53.3916°N, 14.4413°E)
Time: 00:58:58
(UTC+00:00)

Radarsat Rocket - Pass Details

Date: 05 February 2023
Orbit: 933 x 1491 km, 100.6° (Epoch: 20 March)

Event Time Altitude Azimuth Distance (km) Brightness Sun altitude
Rises 16:40:17 0° 159° (SSE) 3,667 7.0 -7.5°
Reaches altitude 10° 16:42:36 10° 159° (SSE) 2,766 6.3 -7.8°
Maximum altitude 16:48:49 89° 252° (WSW) 1,087 4.3 -8.7°
Drops below altitude 10° 16:55:53 10° 341° (NNW) 3,128 6.7 -9.7°
Sets 16:58:40 0° 342° (NNW) 4,177 7.4 -10.1°
